Regional Weather Roundup
Issued by NWS

Home | Current Version | Previous Version | Text Only | Print | Product List | Glossary On
Versions: 1 2 3 4 5 6 7 8 9 10 11 12 13 14 15 16 17 18 19 20 21 22 23 24 25 26 27 28 29 30 31 32 33 34 35 36 37 38 39 40 41 42 43 44 45 46 47 48 49 50
000
ASUS46 KPQR 221110
RWROR

OREGON REGIONAL WEATHER ROUNDUP
NATIONAL WEATHER SERVICE PORTLAND OR
300 AM PST WED FEB 22 2017

NOTE: "FAIR" INDICATES FEW OR NO CLOUDS BELOW 12,000 FEET WITH
NO SIGNIFICANT WEATHER AND/OR OBSTRUCTIONS TO VISIBILITY.

ORZ001>013-221200-
NORTHWEST OREGON


CITY           SKY/WX    TMP DP  RH WIND       PRES   REMARKS
ASTORIA        PTCLDY    35  32  88 SE3       30.19F
NEWPORT        MOCLDY    36  36 100 E6        30.24S WCI  31
PORTLAND       FOG       31  31 100 CALM      30.21F VSB 1/4
VANCOUVER WA   PTCLDY    32  32 100 CALM      30.20F FOG
SCAPPOOSE      PTCLDY    31  31 100 W6        30.21R WCI  25
HILLSBORO      PTCLDY    31  28  89 CALM      30.20S
AURORA         FOG       40  40 100 CALM      30.21S VSB 1/4
MCMINNVILLE    MOCLDY    35  33  92 CALM      30.21F
SALEM          CLOUDY    37  35  92 CALM      30.19F
CORVALLIS        N/A     39  36  87 CALM      30.20F
EUGENE         CLOUDY    37  37 100 W3        30.20S FOG
$$

ORZ021-028-221200-
SOUTHWEST OREGON


CITY           SKY/WX    TMP DP  RH WIND       PRES   REMARKS
NORTH BEND     CLOUDY    45  43  93 NE5       30.22S
BROOKINGS      LGT RAIN  41  40  96 CALM      30.21F
ROSEBURG       LGT RAIN  39  37  92 S5        30.18S
SEXTON SUMMIT  FOG       30  28  92 VRB5      30.06S VSB 3/4 WCI  25
MEDFORD        CLOUDY    38  37  97 CALM      30.15F
$$

ORZ014>016-041-221200-
COLUMBIA GORGE


CITY           SKY/WX    TMP DP  RH WIND       PRES   REMARKS
TROUTDALE      FOG       34  33  96 CALM      30.21S VSB 3/4
THE DALLES     PTCLDY    42  29  59 NW12      30.13F
$$

ORZ029>031-041-044-049-050-061>064-502-503-505>511-221200-
EASTERN OREGON


CITY           SKY/WX    TMP DP  RH WIND       PRES   REMARKS
REDMOND        MOCLDY    24  20  84 CALM      30.06F
BEND           MOCLDY    23  21  93 CALM      30.05F
PRINEVILLE     FOG       23  21  93 MISG      30.06F VSB<1/4
KLAMATH FALLS  CLOUDY    30  27  88 W8        30.05F WCI  22
LAKEVIEW       CLOUDY    28  25  86 S9        30.02F WCI  20
HERMISTON      CLOUDY    39  34  82 SW10      30.09S WCI  32
PENDLETON      CLOUDY    36  36 100 CALM      30.08S
JOHN DAY       CLOUDY    31  30  96 CALM      30.03F
MEACHAM        CLOUDY    29  24  82 CALM      30.01S
LA GRANDE      CLOUDY    36  30  80 NW10      30.03S WCI  28
BAKER CITY     FLURRIES  32  31  96 W3        30.01S
BURNS          CLOUDY    24  20  84 N5        30.02F WCI  18
ROME             N/A     31  25  78 SE7       30.00F WCI  24
ONTARIO        PTCLDY    30  24  78 W7        30.05F WCI  23
$$



USA.gov is the U.S. government's official web portal to all federal, state and local government web resources and services.